STARLINK-34741, 65097

Orbit data source: Space-Track

STARLINK-34741, 65097 is a payload satellite owned by SpaceX/Seattle (US) in LEO that was launched on Mon, 04 Aug 2025 UTC via an FALCON 9 launch vehicle from the Air Force Eastern Test Range (AFETR). Payload-class satellites include a variety of spacecraft equipped with specific instruments for various scientific and technological missions. These include communications satellites like Starlink; space stations such as the ISS; scientific satellites like the Hubble; Earth observation satellites from companies like Planet Labs, Umbra, and HawkEye 360; GPS; miniature CubeSats for education and research; and military/defense satellites.

Loading next visibility...
Identifier
65097, 2025-167V
Orbit
LEO
Country
Flag of USUS
Related business
Manufacturer
SpaceX/Seattle
Mission
Operational spacecraft
Bus & Motor
STARLINK V2MO, Unknown motor
Mass
575 kg wet, ~530 kg dry
Launch date (UTC)
2025-08-04 (1 month ago)
Launch vehicle
FALCON 9
Launch site
Air Force Eastern Test Range (AFETR)
Object type
Payload
Rocket body
Debris
Shape & HBR
Unknown
Radar Cross Section
Large (>1 m²)

Expand to show TLE details & history
Last TLE update: 9 hours ago

TLE from 9 hours ago
0 STARLINK-34741
1 65097U 25167V   25243.23997436  .00203082  00000-0  13551-2 0  9999
2 65097  53.1580 194.6799 0001421  86.5790 273.5392 15.74234908  4276
Epoch: 2025-08-31T05:45Z
TLE epoch observation values (Epoch: 2025-08-31T05:45:33.784Z)
Latitude
-0.00006°
Longitude
128.62632°
Altitude
347.667 km
Speed
7.702 km/s
True Right ascension
12h 58m 43s
True Declination
0° 00' 00"
Sunlit
Object was in daylight at epoch
Visualization orbit readout
Latitude
Unknown
Longitude
Unknown
Altitude
Unknown
Speed
Unknown
Apparent Right ascension
Unknown
Apparent Declination
Unknown
Sunlit
N/A
Visualization observer readout
Local Sidereal Time
06:14:57
Azimuth
Unknown
Elevation
Unknown
Doppler factor
Unknown
Orbital elements
Apogee altitude
348.026 km
Perigee altitude
346.115 km
Semi-major axis
6,725.208 km
Eccentricity
0.00014
Inclination
53.158°
RAAN
194.6799°
Arg. of periapsis
86.579°
True anomaly
273.52295°
Mean anomaly
273.5392°
Eccentric anomaly
273.53107°
Mean motion
3.93536 °/min
Orbital period
91.48 mins
BSTAR
0.0013551
Loading maneuver chart data...
Computing Atmospheric mass density...
Loading historical data...
Loading historical data...
Loading historical data...
Loading historical data...
Loading historical data...
Loading historical data...
Loading historical data...

Documentation

Showing up to 5 results
|